GW3001 Weather Reports


time (UTC)temp
F
wind
direction
speed
knots
gust
knots
rain 1hr
in
rain 24hr
in
rain mn
in
humidity
%
barometer
mb
20260506124956 77 81 1.7 3.5 0.00 0.00 0.00 95 1006.1
20260506123954 77 82 1.7 5.2 0.00 0.00 0.00 95 1006.1
20260506123450 77 82 1.7 5.2 0.00 0.00 0.00 95 1006.1
20260506122947 77 201 0.9 3.5 0.00 0.00 0.00 95 1006.0
20260506122450 77 126 0.9 3.5 0.00 0.00 0.00 95 1006.2
20260506121944 77 126 0.9 1.7 0.00 0.00 0.00 95 1006.2
20260506121445 77 126 0.9 2.6 0.00 0.00 0.00 95 1006.2
20260506120942 77 126 0.9 2.6 0.00 0.00 0.00 95 1006.0
20260506120440 77 126 0.9 2.6 0.00 0.00 0.00 95 1006.0
20260506115941 77 126 0.9 1.7 0.00 0.00 0.00 95 1006.1
20260506115441 77 126 0.9 2.6 0.00 0.00 0.00 95 1006.0
20260506114925 77 126 0.9 2.6 0.00 0.00 0.00 95 1006.0
20260506114422 77 126 0.9 2.6 0.00 0.00 0.00 95 1005.9
20260506113924 77 126 0.9 2.6 0.00 0.00 0.00 95 1006.0
20260506113422 77 126 0.9 2.6 0.00 0.00 0.00 95 1005.8
20260506112911 77 126 0.9 3.5 0.00 0.00 0.00 95 1005.7
20260506112408 77 126 0.9 3.5 0.00 0.00 0.00 95 1005.7
20260506111907 77 126 0.9 2.6 0.00 0.00 0.00 95 1005.6
20260506111408 77 126 0.9 2.6 0.00 0.00 0.00 95 1005.6
20260506110904 77 126 0.9 4.3 0.00 0.00 0.00 95 1005.6
20260506110405 77 126 0.9 4.3 0.00 0.00 0.00 95 1005.6
20260506105904 77 129 0.9 3.5 0.00 0.00 0.00 95 1005.6
20260506105403 77 128 0.9 4.3 0.00 0.00 0.00 95 1005.6
20260506104903 77 128 0.9 4.3 0.00 0.00 0.00 95 1005.6
20260506104404 77 129 0.9 2.6 0.00 0.00 0.00 95 1005.6
20260506103904 77 128 0.9 3.5 0.00 0.00 0.00 95 1005.5
20260506103402 77 128 0.9 3.5 0.00 0.00 0.00 95 1005.5
20260506102903 77 128 0.9 3.5 0.00 0.00 0.00 95 1005.6
20260506102403 77 128 0.9 3.5 0.00 0.00 0.00 94 1005.7
20260506101902 77 128 0.9 1.7 0.00 0.00 0.00 94 1005.7
20260506101403 77 128 0.9 1.7 0.00 0.00 0.00 94 1005.6
20260506100901 77 128 0.9 2.6 0.00 0.00 0.00 94 1005.5
20260506100404 77 128 0.9 2.6 0.00 0.00 0.00 94 1005.5
20260506100400 77 128 0.9 2.6 0.00 0.00 0.00 94 1005.6
20260506095401 77 128 0.9 2.6 0.00 0.00 0.00 94 1005.6
20260506094854 77 128 0.9 2.6 0.00 0.00 0.00 94 1005.6
20260506094351 77 128 0.9 2.6 0.00 0.00 0.00 94 1005.4
20260506093845 77 128 0.9 3.5 0.00 0.00 0.00 94 1005.5
20260506093345 77 128 0.9 3.5 0.00 0.00 0.00 94 1005.5
20260506093340 77 128 0.9 2.6 0.00 0.00 0.00 94 1005.5
20260506092338 77 128 0.9 2.6 0.00 0.00 0.00 94 1005.6
20260506091838 77 128 0.9 2.6 0.00 0.00 0.00 94 1005.6
20260506091801 77 128 0.9 2.6 0.00 0.00 0.00 94 1005.7
20260506091405 77 128 0.0 2.6 0.00 0.00 0.00 94 1005.6
20260506090231 77 128 0.9 2.6 0.00 0.00 0.00 94 1005.6
20260506085731 78 128 0.9 2.6 0.00 0.00 0.00 94 1005.4
20260506085211 78 128 0.9 2.6 0.00 0.00 0.00 93 1005.2
20260506084714 78 129 0.9 2.6 0.00 0.00 0.00 93 1005.6
20260506084710 78 129 0.9 2.6 0.00 0.00 0.00 93 1005.5
20260506083709 78 128 0.9 3.5 0.00 0.00 0.00 93 1005.5
20260506083209 78 128 0.9 3.5 0.00 0.00 0.00 93 1005.4
20260506082704 78 126 0.9 3.5 0.00 0.00 0.00 93 1005.5
20260506082200 78 126 0.9 4.3 0.00 0.00 0.00 93 1005.4
20260506081703 78 121 0.9 2.6 0.00 0.00 0.00 93 1005.5
20260506081659 78 121 0.9 4.3 0.00 0.00 0.00 93 1005.5
20260506080657 78 121 0.9 2.6 0.00 0.00 0.00 92 1005.6
20260506080156 78 121 0.9 4.3 0.00 0.00 0.00 92 1005.7
20260506073129 78 115 0.9 3.5 0.00 0.00 0.00 92 1005.8
20260506072621 78 111 0.9 3.5 0.00 0.00 0.00 92 1005.9
20260506072115 78 109 1.7 3.5 0.00 0.00 0.00 92 1005.9
20260506071609 78 152 1.7 3.5 0.00 0.00 0.00 92 1006.0
20260506071107 78 153 1.7 4.3 0.00 0.00 0.00 92 1006.0
20260506070610 78 111 1.7 4.3 0.00 0.00 0.00 92 1006.2
20260506070109 78 107 1.7 4.3 0.00 0.00 0.00 92 1006.1
20260506062053 78 165 1.7 4.3 0.00 0.00 0.00 92 1006.5
20260506061709 78 165 1.7 6.1 0.00 0.00 0.00 92 1006.7
20260506061051 78 165 0.9 2.6 0.00 0.00 0.00 92 1006.6
20260506051024 79 205 2.6 9.6 0.00 0.00 0.00 91 1006.4
20260506050525 79 151 3.5 9.6 0.00 0.00 0.00 91 1006.3
20260506045017 79 178 2.6 9.6 0.00 0.00 0.00 91 1006.1
20260506044517 79 119 2.6 9.6 0.00 0.00 0.00 91 1006.2
20260506044024 79 164 2.6 7.0 0.00 0.00 0.00 91 1006.1
20260506044018 79 163 2.6 8.7 0.00 0.00 0.00 91 1006.2
20260506043013 79 140 1.7 5.2 0.00 0.00 0.00 91 1006.0
20260506042515 79 146 2.6 7.8 0.00 0.00 0.00 91 1005.9
20260506042511 79 173 2.6 7.8 0.00 0.00 0.00 91 1005.9
20260506042129 79 135 1.7 6.1 0.00 0.00 0.00 91 1005.9
20260506041511 79 124 1.7 6.1 0.00 0.00 0.00 91 1005.8
20260506041005 79 142 1.7 4.3 0.00 0.00 0.00 91 1006.0
20260506040002 79 156 2.6 6.1 0.00 0.00 0.00 91 1005.8
20260506035504 79 184 2.6 7.8 0.00 0.00 0.00 91 1005.8
20260506035003 79 142 2.6 7.8 0.00 0.00 0.00 91 1005.9
20260506034503 79 179 2.6 7.0 0.00 0.00 0.00 91 1005.7
20260506034003 79 158 2.6 6.1 0.00 0.00 0.00 91 1005.6
20260506033458 79 140 2.6 6.1 0.00 0.00 0.00 91 1005.7
20260506032958 79 147 2.6 6.1 0.00 0.00 0.00 91 1005.7
20260506032501 79 150 2.6 7.8 0.00 0.00 0.00 91 1005.6
20260506032000 79 158 2.6 7.8 0.00 0.00 0.00 91 1005.6
20260506031458 79 166 2.6 6.1 0.00 0.00 0.00 91 1005.7
20260506030959 79 136 2.6 7.8 0.00 0.00 0.00 91 1005.7
20260506030446 79 147 2.6 8.7 0.00 0.00 0.00 91 1005.6
20260506025947 79 171 2.6 8.7 0.00 0.00 0.00 91 1005.6
20260506025444 79 151 2.6 6.1 0.00 0.00 0.00 91 1005.6
20260506024943 79 140 2.6 6.1 0.00 0.00 0.00 91 1005.4
20260506024439 79 126 2.6 7.0 0.00 0.00 0.00 91 1005.2
20260506023944 79 168 2.6 8.7 0.00 0.00 0.00 91 1005.2
20260506023939 79 81 2.6 7.0 0.00 0.00 0.00 91 1005.3
20260506022936 79 172 2.6 8.7 0.00 0.00 0.00 91 1005.0
20260506022441 79 169 2.6 10.4 0.00 0.00 0.00 90 1004.9
20260506022437 79 169 1.7 10.4 0.00 0.00 0.00 90 1005.0
20260506021436 79 136 1.7 5.2 0.00 0.00 0.00 90 1004.9
20260506021430 79 177 1.7 7.8 0.00 0.00 0.00 90 1004.9
20260506021044 79 119 2.6 7.8 0.00 0.00 0.00 90 1004.9
20260506015929 79 161 2.6 9.6 0.00 0.00 0.00 90 1004.7
20260506015429 79 171 2.6 9.6 0.00 0.00 0.00 90 1004.8
20260506014928 79 134 2.6 7.8 0.00 0.00 0.00 90 1004.6
20260506014429 79 161 3.5 9.6 0.00 0.00 0.00 90 1004.6
20260506013922 79 161 3.5 9.6 0.00 0.00 0.00 89 1004.5
20260506013428 79 173 4.3 10.4 0.00 0.00 0.00 89 1004.5
20260506013423 79 202 3.5 9.6 0.00 0.00 0.00 89 1004.5
20260506013042 80 116 3.5 9.6 0.00 0.00 0.00 89 1004.4
20260506012423 79 182 4.3 10.4 0.00 0.00 0.00 89 1004.5
20260506011425 80 169 3.5 11.3 0.00 0.00 0.00 89 1004.3
20260506011418 80 182 4.3 11.3 0.00 0.00 0.00 89 1004.4
20260506010418 80 151 2.6 7.8 0.00 0.00 0.00 89 1004.2
20260506005924 80 123 2.6 7.8 0.00 0.00 0.00 89 1004.1
20260506005919 80 167 2.6 6.1 0.00 0.00 0.00 89 1004.2
20260506004912 80 174 3.5 8.7 0.00 0.00 0.00 88 1004.2
20260506004419 80 202 3.5 9.6 0.00 0.00 0.00 88 1003.9
20260506004413 80 175 2.6 8.7 0.00 0.00 0.00 88 1004.1
20260506004028 80 155 2.6 8.7 0.00 0.00 0.00 88 1003.8
20260506003906 80 171 3.5 9.6 0.00 0.00 0.00 88 1003.8
20260506002406 81 134 3.5 8.7 0.00 0.00 0.00 87 1003.9
20260506001901 81 78 3.5 11.3 0.00 0.00 0.00 87 1003.9
20260506001401 81 159 2.6 11.3 0.00 0.00 0.00 87 1003.8
20260506000902 81 168 2.6 7.8 0.00 0.00 0.00 87 1003.8
20260506000402 81 123 3.5 12.2 0.00 0.00 0.00 87 1003.7
20260505235906 81 119 4.3 11.3 0.00 0.00 0.00 87 1003.7
20260505235902 81 123 4.3 12.2 0.00 0.00 0.00 87 1003.6
20260505234859 81 143 4.3 11.3 0.00 0.00 0.00 87 1003.7
20260505234401 81 171 4.3 10.4 0.00 0.00 0.00 87 1003.7
20260505233902 81 53 4.3 12.2 0.00 0.00 0.00 87 1003.6
20260505233400 81 130 4.3 12.2 0.00 0.00 0.00 86 1003.7
20260505232859 82 108 3.5 11.3 0.00 0.00 0.00 86 1003.8
20260505232400 82 180 2.6 8.7 0.00 0.00 0.00 86 1003.8
20260505232355 82 163 2.6 7.0 0.00 0.00 0.00 86 1003.8
20260505231355 82 161 3.5 8.7 0.00 0.00 0.00 87 1003.7
20260505230853 81 167 3.5 8.7 0.00 0.00 0.00 87 1003.8
20260505230355 82 157 2.6 7.8 0.00 0.00 0.00 86 1003.8
20260505225855 81 162 3.5 11.3 0.00 0.00 0.00 86 1003.7
20260505225850 81 179 3.5 8.7 0.00 0.00 0.00 87 1003.9
20260505224851 81 93 3.5 11.3 0.00 0.00 0.00 86 1004.0
20260505224349 82 153 3.5 10.4 0.00 0.00 0.00 86 1004.1
20260505223851 82 197 3.5 10.4 0.00 0.00 0.00 86 1004.2
20260505223351 82 153 3.5 8.7 0.00 0.00 0.00 86 1004.3
20260505222849 82 158 3.5 8.7 0.00 0.00 0.00 86 1004.2
20260505222344 82 109 3.5 8.7 0.00 0.00 0.00 85 1004.3
20260505221846 83 146 3.5 7.8 0.00 0.00 0.00 85 1004.2
20260505221346 83 86 3.5 9.6 0.00 0.00 0.00 85 1004.3
20260505220848 83 128 3.5 9.6 0.00 0.00 0.00 85 1004.3
20260505220843 83 163 3.5 9.6 0.00 0.00 0.00 85 1004.2
20260505220502 83 192 3.5 9.6 0.00 0.00 0.00 84 1004.3
20260505215344 83 146 2.6 11.3 0.00 0.00 0.00 84 1004.3
20260505214844 83 111 3.5 11.3 0.00 0.00 0.00 84 1004.3
20260505214346 83 84 3.5 11.3 0.00 0.00 0.00 84 1004.3
20260505214340 83 105 3.5 10.4 0.00 0.00 0.00 84 1004.3
20260505213338 83 148 3.5 10.4 0.00 0.00 0.00 84 1004.3
20260505212839 83 166 3.5 9.6 0.00 0.00 0.00 84 1004.5
20260505212337 83 144 3.5 11.3 0.00 0.00 0.00 84 1004.5
20260505211834 84 171 2.6 11.3 0.00 0.00 0.00 83 1004.6
20260505211335 84 108 2.6 9.6 0.00 0.00 0.00 83 1004.6
20260505210831 83 181 3.5 10.4 0.00 0.00 0.00 84 1004.7
20260505210827 84 171 2.6 10.4 0.00 0.00 0.00 84 1004.7
20260505205825 83 74 3.5 7.8 0.00 0.00 0.00 84 1004.8
20260505205327 83 76 3.5 8.7 0.00 0.00 0.00 84 1004.8
20260505204826 84 129 3.5 9.6 0.00 0.00 0.00 83 1004.8
20260505204326 84 100 3.5 9.6 0.00 0.00 0.00 83 1004.8
20260505203827 84 88 3.5 11.3 0.00 0.00 0.00 83 1004.8
20260505203324 85 98 2.6 11.3 0.00 0.00 0.00 82 1005.0
20260505202825 85 101 2.6 9.6 0.00 0.00 0.00 83 1005.1
20260505202325 84 78 3.5 9.6 0.00 0.00 0.00 83 1005.0
20260505201825 84 61 3.5 7.8 0.00 0.00 0.00 83 1005.1
20260505201324 84 84 2.6 7.8 0.00 0.00 0.00 83 1005.3
20260505200817 85 157 2.6 8.7 0.00 0.00 0.00 82 1005.3
20260505200317 85 121 3.5 10.4 0.00 0.00 0.00 81 1005.4
20260505195817 85 103 3.5 10.4 0.00 0.00 0.00 79 1005.4
20260505195316 85 120 3.5 10.4 0.00 0.00 0.00 79 1005.5
20260505194820 84 150 4.3 11.3 0.00 0.00 0.00 80 1005.5
20260505194814 85 199 3.5 11.3 0.00 0.00 0.00 79 1005.4
20260505193813 84 167 4.3 9.6 0.00 0.00 0.00 80 1005.5
20260505193315 84 184 4.3 11.3 0.00 0.00 0.00 81 1005.6
20260505192814 84 171 4.3 14.8 0.00 0.00 0.00 81 1005.8
20260505192313 84 80 4.3 14.8 0.00 0.00 0.00 81 1005.8
20260505191815 84 190 4.3 11.3 0.00 0.00 0.00 81 1005.7
20260505191311 84 229 4.3 11.3 0.00 0.00 0.00 82 1005.8
20260505190811 83 173 4.3 11.3 0.00 0.00 0.00 82 1005.8
20260505190313 83 214 3.5 10.4 0.00 0.00 0.00 82 1005.9
20260505185814 83 152 3.5 10.4 0.00 0.00 0.00 82 1006.0
20260505185808 83 115 3.5 10.4 0.00 0.00 0.00 82 1005.9
20260505185429 83 115 3.5 9.6 0.00 0.00 0.00 82 1006.1
20260505184315 84 144 4.3 11.3 0.00 0.00 0.00 81 1006.3
20260505184310 84 146 3.5 9.6 0.00 0.00 0.00 82 1006.2
20260505183808 84 156 4.3 11.3 0.00 0.00 0.00 82 1006.2
20260505182806 83 194 5.2 13.9 0.00 0.00 0.00 82 1006.3
20260505182307 83 160 5.2 13.9 0.00 0.00 0.00 81 1006.3
20260505181811 83 205 3.5 11.3 0.00 0.00 0.00 82 1006.3
20260505181806 83 196 3.5 11.3 0.00 0.00 0.00 82 1006.3
20260505180802 83 182 3.5 7.8 0.00 0.00 0.00 83 1006.3
20260505180309 82 182 3.5 10.4 0.00 0.00 0.00 84 1006.4
20260505180303 83 202 3.5 9.6 0.00 0.00 0.00 84 1006.4
20260505175259 82 217 3.5 10.4 0.00 0.00 0.00 85 1006.5
20260505174801 82 156 2.6 9.6 0.00 0.00 0.00 85 1006.5
20260505174300 81 165 4.3 9.6 0.00 0.00 0.00 85 1006.5
20260505173804 80 150 2.6 7.8 0.00 0.00 0.00 88 1006.6
20260505173759 82 136 4.3 10.4 0.00 0.00 0.00 85 1006.5
20260505173258 81 187 3.5 10.4 0.00 0.00 0.00 86 1006.5
20260505172301 80 191 1.7 7.8 0.00 0.00 0.00 88 1006.8
20260505171759 80 207 1.7 4.3 0.00 0.00 0.00 88 1006.8
20260505171259 80 165 1.7 4.3 0.00 0.00 0.00 88 1006.8
20260505170758 80 123 2.6 6.1 0.00 0.00 0.00 88 1006.8
20260505170258 80 197 2.6 6.1 0.00 0.00 0.00 88 1006.8
20260505165800 80 194 1.7 5.2 0.00 0.00 0.00 90 1006.8
20260505165245 80 213 1.7 6.1 0.00 0.00 0.00 90 1006.8
20260505164747 80 173 2.6 7.8 0.00 0.00 0.00 89 1006.8
20260505164244 80 207 2.6 7.8 0.00 0.00 0.00 90 1006.9
20260505163743 79 200 2.6 7.8 0.00 0.00 0.00 91 1006.9
20260505163247 78 197 3.5 6.1 0.00 0.00 0.00 93 1006.8
20260505163242 79 202 2.6 7.8 0.00 0.00 0.00 91 1006.9
20260505162846 79 213 2.6 6.1 0.00 0.00 0.00 93 1006.8
20260505161740 78 207 2.6 5.2 0.00 0.00 0.00 93 1006.9
20260505161238 78 221 1.7 5.2 0.00 0.00 0.00 93 1006.9
20260505160739 78 193 1.7 5.2 0.00 0.00 0.00 93 1006.9
20260505160231 77 208 1.7 6.1 0.00 0.00 0.00 93 1006.8
20260505153220 77 205 2.6 8.7 0.00 0.00 0.00 92 1006.8
20260505153215 78 229 2.6 8.7 0.00 0.00 0.00 92 1006.7
20260505152212 77 186 1.7 4.3 0.00 0.00 0.00 92 1006.7
20260505151713 77 197 2.6 5.2 0.00 0.00 0.00 92 1006.7
20260505151211 77 214 2.6 7.8 0.00 0.00 0.00 92 1006.7
20260505150710 77 194 2.6 8.7 0.00 0.00 0.00 92 1006.8
20260505150208 77 165 1.7 8.7 0.00 0.00 0.00 92 1006.8
20260505140628 76 190 1.7 5.2 0.00 0.00 0.00 93 1006.7
20260505140126 76 209 2.6 6.1 0.00 0.00 0.00 92 1006.7
20260505140121 76 194 2.6 6.1 0.00 0.00 0.00 93 1006.6
20260505130112 75 147 1.7 6.1 0.00 0.00 0.00 94 1006.4